Venice, Italy

5:17 PM CET on February 09, 2016 (GMT +0100)
Tessera

Weather History for LIPZ - June, 2013

Change the Weather History Date:

Sunday, June 2, 2013

  Actual Average Record
Temperature  
Mean Temperature 62 °F -  
Max Temperature 66 °F 77 °F 82 °F (1999)
Min Temperature 57 °F 61 °F 48 °F (2006)
Degree Days  
Heating Degree Days 4    
Growing Degree Days 12 (Base 50)    
Moisture  
Dew Point 55 °F    
Average Humidity 77    
Maximum Humidity 94    
Minimum Humidity 60    
Precipitation  
Precipitation 0.00 in 0.10 in - ()
Sea Level Pressure  
Sea Level Pressure 29.77 in    
Wind  
Wind Speed 4 mph ()    
Max Wind Speed 7 mph    
Max Gust Speed -    
Visibility 6.2 miles    
Events      
Averages and records for this station are not official NWS values.
T = Trace of Precipitation, MM = Missing Value Source: Averaged Metar Reports

Daily Weather History Graph

Daily Weather History Graph

Search for Another Location

Airport or City:

Trip Planner

Search our weather history database for the weather conditions in past years. The results will help you decide how hot, cold, wet, or windy it might be!

Date:

Astronomy

Jun. 02, 2013 Rise Set
Actual Time 5:24 AM CEST 8:52 PM CEST
Civil Twilight 4:47 AM CEST 9:30 PM CEST
Nautical Twilight 3:59 AM CEST 10:18 PM CEST
Astronomical Twilight 2:56 AM CEST 11:22 PM CEST
Moon 1:59 AM CEST (6/2) 2:51 PM CEST (6/2)
Length of Visible Light 16h 42m
Length of Day
15h 28m
Waning Crescent, 33% of the Moon is Illuminated
Jun 2
Waning Crescent
Jun 8
New
Jun 16
First Quarter
Jun 23
Full
Jun 30
Last Quarter

Hourly Weather History & Observations

Time (CEST) Temp. Dew Point Humidity Pressure Visibility Wind Dir Wind Speed Gust Speed Precip Events Conditions
12:20 AM 62.6 °F 53.6 °F 72% 29.71 in - South 6.9 mph - N/A   Clear
12:50 AM 60.8 °F 53.6 °F 77% 29.71 in - South 5.8 mph - N/A   Clear
1:20 AM 60.8 °F 53.6 °F 77% 29.71 in - South 5.8 mph - N/A   Clear
1:50 AM 60.8 °F 53.6 °F 77% 29.71 in - Variable 3.5 mph - N/A   Clear
2:20 AM 60.8 °F 53.6 °F 77% 29.71 in - Variable 2.3 mph - N/A   Clear
2:50 AM 59.0 °F 53.6 °F 82% 29.71 in - Variable 2.3 mph - N/A   Clear
3:20 AM 60.8 °F 53.6 °F 77% 29.71 in - Variable 3.5 mph - N/A   Clear
3:50 AM 59.0 °F 53.6 °F 82% 29.71 in - Variable 3.5 mph - N/A   Clear
4:20 AM 59.0 °F 53.6 °F 82% 29.71 in - Variable 3.5 mph - N/A   Clear
4:50 AM 57.2 °F 51.8 °F 82% 29.71 in - NE 4.6 mph - N/A   Clear
5:20 AM 57.2 °F 53.6 °F 88% 29.71 in - NNE 4.6 mph - N/A   Clear
5:50 AM 57.2 °F 53.6 °F 88% 29.71 in - Variable 2.3 mph - N/A   Clear
6:20 AM 57.2 °F 55.4 °F 94% 29.71 in - Variable 3.5 mph - N/A   Clear
6:50 AM 59.0 °F 55.4 °F 88% 29.71 in - Variable 3.5 mph - N/A   Clear
7:20 AM 60.8 °F 55.4 °F 82% 29.71 in 6.2 mi Variable 2.3 mph - N/A   Partly Cloudy
7:50 AM 60.8 °F 55.4 °F 82% 29.71 in 6.2 mi Variable 2.3 mph - N/A   Partly Cloudy
8:20 AM 60.8 °F 57.2 °F 88% 29.74 in 6.2 mi Variable 2.3 mph - N/A   Partly Cloudy
8:50 AM 62.6 °F 55.4 °F 77% 29.71 in 6.2 mi Variable 3.5 mph - N/A   Partly Cloudy
9:20 AM 62.6 °F 53.6 °F 72% 29.71 in 6.2 mi Variable 2.3 mph - N/A   Partly Cloudy
9:50 AM 62.6 °F 53.6 °F 72% 29.74 in 6.2 mi Variable 3.5 mph - N/A   Partly Cloudy
10:20 AM 62.6 °F 53.6 °F 72% 29.74 in 6.2 mi Variable 3.5 mph - N/A   Partly Cloudy
10:50 AM 62.6 °F 55.4 °F 77% 29.74 in 6.2 mi East 4.6 mph - N/A   Partly Cloudy
11:20 AM 62.6 °F 55.4 °F 77% 29.74 in 6.2 mi East 5.8 mph - N/A   Partly Cloudy
11:50 AM 62.6 °F 55.4 °F 77% 29.74 in 6.2 mi East 5.8 mph - N/A   Partly Cloudy
12:20 PM 64.4 °F 55.4 °F 73% 29.77 in 6.2 mi East 6.9 mph - N/A   Scattered Clouds
12:50 PM 62.6 °F 55.4 °F 77% 29.77 in 6.2 mi ESE 4.6 mph - N/A   Partly Cloudy
1:20 PM 62.6 °F 55.4 °F 77% 29.77 in 6.2 mi ESE 6.9 mph - N/A   Scattered Clouds
1:50 PM 62.6 °F 55.4 °F 77% 29.77 in 6.2 mi ESE 4.6 mph - N/A   Scattered Clouds
2:20 PM 64.4 °F 55.4 °F 73% 29.77 in 6.2 mi East 5.8 mph - N/A   Partly Cloudy
2:50 PM 64.4 °F 57.2 °F 77% 29.77 in 6.2 mi SE 4.6 mph - N/A   Partly Cloudy
3:20 PM 64.4 °F 57.2 °F 77% 29.80 in 6.2 mi ESE 4.6 mph - N/A   Partly Cloudy
3:50 PM 64.4 °F 57.2 °F 77% 29.80 in 6.2 mi Variable 2.3 mph - N/A   Partly Cloudy
4:20 PM 64.4 °F 57.2 °F 77% 29.80 in 6.2 mi ESE 4.6 mph - N/A   Partly Cloudy
4:50 PM 66.2 °F 57.2 °F 73% 29.80 in 6.2 mi Variable 3.5 mph - N/A   Partly Cloudy
5:20 PM 64.4 °F 57.2 °F 77% 29.80 in 6.2 mi Variable 3.5 mph - N/A   Partly Cloudy
5:50 PM 66.2 °F 55.4 °F 68% 29.80 in 6.2 mi Variable 2.3 mph - N/A   Partly Cloudy
6:20 PM 66.2 °F 55.4 °F 68% 29.80 in 6.2 mi Variable 1.2 mph - N/A   Partly Cloudy
6:50 PM 66.2 °F 55.4 °F 68% 29.80 in 6.2 mi Variable 3.5 mph - N/A   Partly Cloudy
7:20 PM 66.2 °F 51.8 °F 60% 29.80 in 6.2 mi ENE 5.8 mph - N/A   Partly Cloudy
7:50 PM 64.4 °F 55.4 °F 73% 29.80 in 6.2 mi ENE 4.6 mph - N/A   Partly Cloudy
8:20 PM 64.4 °F 55.4 °F 73% 29.83 in 6.2 mi ENE 4.6 mph - N/A   Partly Cloudy
8:50 PM 64.4 °F 55.4 °F 73% 29.83 in 6.2 mi Variable 3.5 mph - N/A   Partly Cloudy
9:20 PM 64.4 °F 55.4 °F 73% 29.83 in 6.2 mi East 4.6 mph - N/A   Partly Cloudy
9:50 PM 64.4 °F 55.4 °F 73% 29.86 in 6.2 mi ENE 4.6 mph - N/A   Partly Cloudy
10:20 PM 62.6 °F 55.4 °F 77% 29.86 in 6.2 mi Variable 3.5 mph - N/A   Partly Cloudy
10:50 PM 62.6 °F 55.4 °F 77% 29.89 in 6.2 mi Variable 2.3 mph - N/A   Partly Cloudy
11:20 PM 60.8 °F 53.6 °F 77% 29.89 in 6.2 mi Calm Calm - N/A   Partly Cloudy
11:50 PM 60.8 °F 53.6 °F 77% 29.92 in 6.2 mi Calm Calm - N/A   Partly Cloudy